Regional Weather Roundup
Issued by NWS

Home | Current Version | Previous Version | Text Only | Print | Product List | Glossary Off
Versions: 1 2 3 4 5 6 7 8 9 10 11 12 13 14 15 16 17 18 19 20 21 22 23 24 25 26 27 28 29 30 31 32 33 34 35 36 37 38 39 40 41 42 43 44 45 46 47 48 49 50

000
ASUS45 KCYS 271010
RWRWY

WYOMING REGIONAL WEATHER ROUNDUP
NATIONAL WEATHER SERVICE CHEYENNE WY
400 AM MDT MON APR 27 2015

NOTE:  "FAIR" INDICATES FEW OR NO CLOUDS BELOW 12,000 FEET
WITH NO SIGNIFICANT WEATHER AND/OR OBSTRUCTIONS TO VISIBILITY.

WYZ001-271100-
YELLOWSTONE NATIONAL PARK

CITY           SKY/WX    TMP DP  RH WIND       PRES   REMARKS
LK YELLOWSTONE   N/A     27  24  89 CALM      30.24R
W YELLOWSTONE  NOT AVBL

$$
WYZ002>013-054>058-071-098>099-271100-
NORTHERN WYOMING

CITY           SKY/WX    TMP DP  RH WIND       PRES   REMARKS
JACKSON        FAIR      36  32  87 N6        30.19R WCI  31
CODY           CLOUDY    34  34 100 NE3       30.24S
GREYBULL       CLOUDY    37  34  89 N6        30.24R WCI  32
WORLAND        CLOUDY    38  33  82 NW3       30.25R
SHERIDAN       CLOUDY    36  34  92 NW3       30.26S
BUFFALO        FLURRIES  33  32  96 NW8       30.24R WCI  26
GILLETTE       CLOUDY    34  33  96 N8        30.23R WCI  27
HULETT         LGT SNOW  34  32  93 CALM      30.24R
NEWCASTLE      DRIZZLE   37  37 100 NW10      30.21R WCI  30

$$
WYZ014>020-022>026-101>103-271100-
CENTRAL WYOMING

CITY           SKY/WX    TMP DP  RH WIND       PRES   REMARKS
BIG PINEY      CLOUDY    38  30  73 N6        30.17R WCI  33
PINEDALE       CLOUDY    36  34  93 N3        30.17R
DUBOIS         LGT SNOW  32  32 100 SE5       30.18S WCI  27
LANDER         LGT RAIN  35  33  92 W5        30.20R WCI  31
RIVERTON       CLOUDY    36  33  89 N8        30.21R WCI  30
CASPER         LGT SNOW  33  31  92 NE6       30.21R FOG     WCI  28
DOUGLAS        CLOUDY    40  38  93 N12       30.18R WCI  33

$$
WYZ021-027>030-104>119-271100-
SOUTHERN WYOMING

CITY           SKY/WX    TMP DP  RH WIND       PRES   REMARKS
EVANSTON       CLOUDY    34  31  88 NW5       30.18S WCI  30
KEMMERER       DRIZZLE   34  34 100 CALM      30.18S
FORT BRIDGER   LGT SNOW  34  34 100 W8        30.20R WCI  27
ROCK SPRINGS   LGT RAIN  36  34  92 NE6       30.16R WCI  31
DIXON          CLOUDY    35  34  95 SE5       30.10R FOG     WCI  31
RAWLINS        CLOUDY    36  32  85 N12       30.13R WCI  28
SARATOGA       PTSUNNY   34  34 100 W3        30.11R
LARAMIE        CLOUDY    34  32  92 CALM      30.12R
CHEYENNE       CLOUDY    33  32  96 CALM      30.13S
TORRINGTON     CLOUDY    43  40  89 N3        30.15S
PINE BLUFFS    CLOUDY    37  36  93 NW5       30.16R WCI  34

$$


USA.gov is the U.S. government's official web portal to all federal, state and local government web resources and services.